owner,sensor,date,latitude,longitude,air_pressure(mBar),qcFlag 
WAVCIS,ioos:station:WAVCIS:CSI06:1,2008-07-01T00:00:00Z,28.8667,-90.4833,1016.3,11111222 
WAVCIS,ioos:station:WAVCIS:CSI06:1,2008-07-01T01:00:00Z,28.8667,-90.4833,1016.15,11111222 
WAVCIS,ioos:station:WAVCIS:CSI06:1,2008-07-01T02:00:00Z,28.8667,-90.4833,1016.12,11111222 
WAVCIS,ioos:station:WAVCIS:CSI06:1,2008-07-01T03:00:00Z,28.8667,-90.4833,1016.7,11111222 
WAVCIS,ioos:station:WAVCIS:CSI06:1,2008-07-01T04:00:00Z,28.8667,-90.4833,1016.59,11111222 
WAVCIS,ioos:station:WAVCIS:CSI06:1,2008-07-01T05:00:00Z,28.8667,-90.4833,1016.46,11111222 
WAVCIS,ioos:station:WAVCIS:CSI06:1,2008-07-01T06:00:00Z,28.8667,-90.4833,1016.1,11111222 
WAVCIS,ioos:station:WAVCIS:CSI06:1,2008-07-01T07:00:00Z,28.8667,-90.4833,1015.73,11111222 
WAVCIS,ioos:station:WAVCIS:CSI06:1,2008-07-01T08:00:00Z,28.8667,-90.4833,1015.29,11111222 
WAVCIS,ioos:station:WAVCIS:CSI06:1,2008-07-01T09:00:00Z,28.8667,-90.4833,1014.93,11111222 
WAVCIS,ioos:station:WAVCIS:CSI06:1,2008-07-01T10:00:00Z,28.8667,-90.4833,1014.98,11111222 
WAVCIS,ioos:station:WAVCIS:CSI06:1,2008-07-01T11:00:00Z,28.8667,-90.4833,1015.13,11111222 
WAVCIS,ioos:station:WAVCIS:CSI06:1,2008-07-01T12:00:00Z,28.8667,-90.4833,1015.23,11111222 
WAVCIS,ioos:station:WAVCIS:CSI06:1,2008-07-01T13:00:00Z,28.8667,-90.4833,1016.29,11111222 
WAVCIS,ioos:station:WAVCIS:CSI06:1,2008-07-01T14:00:00Z,28.8667,-90.4833,1016.97,11111222 
WAVCIS,ioos:station:WAVCIS:CSI06:1,2008-07-01T17:00:00Z,28.8667,-90.4833,1016.95,11111222 
WAVCIS,ioos:station:WAVCIS:CSI06:1,2008-07-01T19:00:00Z,28.8667,-90.4833,1016.07,11111222 
WAVCIS,ioos:station:WAVCIS:CSI06:1,2008-07-01T20:00:00Z,28.8667,-90.4833,1015.65,11111222 
WAVCIS,ioos:station:WAVCIS:CSI06:1,2008-07-01T22:00:00Z,28.8667,-90.4833,1014.32,11111222 
WAVCIS,ioos:station:WAVCIS:CSI06:1,2008-07-01T23:00:00Z,28.8667,-90.4833,1014.21,11111222 
WAVCIS,ioos:station:WAVCIS:CSI06:1,2008-07-02T00:00:00Z,28.8667,-90.4833,1014.37,11111222 
WAVCIS,ioos:station:WAVCIS:CSI06:1,2008-07-02T01:00:00Z,28.8667,-90.4833,1014.43,11111222 
WAVCIS,ioos:station:WAVCIS:CSI06:1,2008-07-02T02:00:00Z,28.8667,-90.4833,1014.72,11111222 
WAVCIS,ioos:station:WAVCIS:CSI06:1,2008-07-02T03:00:00Z,28.8667,-90.4833,1014.98,11111222 
WAVCIS,ioos:station:WAVCIS:CSI06:1,2008-07-02T04:00:00Z,28.8667,-90.4833,1015.41,11111222 
WAVCIS,ioos:station:WAVCIS:CSI06:1,2008-07-02T05:00:00Z,28.8667,-90.4833,1015.74,11111222 
WAVCIS,ioos:station:WAVCIS:CSI06:1,2008-07-02T06:00:00Z,28.8667,-90.4833,1015.25,11111222 
WAVCIS,ioos:station:WAVCIS:CSI06:1,2008-07-02T07:00:00Z,28.8667,-90.4833,1014.86,11111222 
WAVCIS,ioos:station:WAVCIS:CSI06:1,2008-07-02T08:00:00Z,28.8667,-90.4833,1014.61,11111222 
WAVCIS,ioos:station:WAVCIS:CSI06:1,2008-07-02T09:00:00Z,28.8667,-90.4833,1014.71,11111222 
WAVCIS,ioos:station:WAVCIS:CSI06:1,2008-07-02T11:00:00Z,28.8667,-90.4833,1014.79,11111222 
WAVCIS,ioos:station:WAVCIS:CSI06:1,2008-07-02T12:00:00Z,28.8667,-90.4833,1015.33,11111222 
WAVCIS,ioos:station:WAVCIS:CSI06:1,2008-07-02T13:00:00Z,28.8667,-90.4833,1015.96,11111222 
WAVCIS,ioos:station:WAVCIS:CSI06:1,2008-07-02T14:00:00Z,28.8667,-90.4833,1016.23,11111222 
WAVCIS,ioos:station:WAVCIS:CSI06:1,2008-07-02T15:00:00Z,28.8667,-90.4833,1016.6,11111222 
WAVCIS,ioos:station:WAVCIS:CSI06:1,2008-07-02T16:00:00Z,28.8667,-90.4833,1016.56,11111222 
WAVCIS,ioos:station:WAVCIS:CSI06:1,2008-07-02T17:00:00Z,28.8667,-90.4833,1016.61,11111222 
WAVCIS,ioos:station:WAVCIS:CSI06:1,2008-07-02T18:00:00Z,28.8667,-90.4833,1016.37,11111222 
WAVCIS,ioos:station:WAVCIS:CSI06:1,2008-07-02T19:00:00Z,28.8667,-90.4833,1015.96,11111222 
WAVCIS,ioos:station:WAVCIS:CSI06:1,2008-07-02T20:00:00Z,28.8667,-90.4833,1015.42,11111222 
WAVCIS,ioos:station:WAVCIS:CSI06:1,2008-07-02T21:00:00Z,28.8667,-90.4833,1014.98,11111222 
WAVCIS,ioos:station:WAVCIS:CSI06:1,2008-07-02T22:00:00Z,28.8667,-90.4833,1014.65,11111222 
WAVCIS,ioos:station:WAVCIS:CSI06:1,2008-07-02T23:00:00Z,28.8667,-90.4833,1014.27,11111222 
WAVCIS,ioos:station:WAVCIS:CSI06:1,2008-07-03T00:00:00Z,28.8667,-90.4833,1014.36,11111222 
WAVCIS,ioos:station:WAVCIS:CSI06:1,2008-07-03T01:00:00Z,28.8667,-90.4833,1014.58,11111222 
WAVCIS,ioos:station:WAVCIS:CSI06:1,2008-07-03T02:00:00Z,28.8667,-90.4833,1015.27,11111222 
WAVCIS,ioos:station:WAVCIS:CSI06:1,2008-07-03T03:00:00Z,28.8667,-90.4833,1015.66,11111222 
WAVCIS,ioos:station:WAVCIS:CSI06:1,2008-07-03T04:00:00Z,28.8667,-90.4833,1015.54,11111222 
WAVCIS,ioos:station:WAVCIS:CSI06:1,2008-07-03T05:00:00Z,28.8667,-90.4833,1015.83,11111222 
WAVCIS,ioos:station:WAVCIS:CSI06:1,2008-07-03T06:00:00Z,28.8667,-90.4833,1014.99,11111222 
WAVCIS,ioos:station:WAVCIS:CSI06:1,2008-07-03T07:00:00Z,28.8667,-90.4833,1014.59,11111222 
WAVCIS,ioos:station:WAVCIS:CSI06:1,2008-07-03T08:00:00Z,28.8667,-90.4833,1014.52,11111222 
WAVCIS,ioos:station:WAVCIS:CSI06:1,2008-07-03T09:00:00Z,28.8667,-90.4833,1014.65,11111222 
WAVCIS,ioos:station:WAVCIS:CSI06:1,2008-07-03T10:00:00Z,28.8667,-90.4833,1015.18,11111222 
WAVCIS,ioos:station:WAVCIS:CSI06:1,2008-07-03T11:00:00Z,28.8667,-90.4833,1015.48,11111222 
WAVCIS,ioos:station:WAVCIS:CSI06:1,2008-07-03T12:00:00Z,28.8667,-90.4833,1016.22,11111222 
WAVCIS,ioos:station:WAVCIS:CSI06:1,2008-07-03T13:00:00Z,28.8667,-90.4833,1016.57,11111222 
WAVCIS,ioos:station:WAVCIS:CSI06:1,2008-07-03T14:00:00Z,28.8667,-90.4833,1016.99,11111222 
WAVCIS,ioos:station:WAVCIS:CSI06:1,2008-07-03T15:00:00Z,28.8667,-90.4833,1017.25,11111222 
WAVCIS,ioos:station:WAVCIS:CSI06:1,2008-07-03T16:00:00Z,28.8667,-90.4833,1017.19,11111222 
WAVCIS,ioos:station:WAVCIS:CSI06:1,2008-07-03T17:00:00Z,28.8667,-90.4833,1016.87,11111222 
WAVCIS,ioos:station:WAVCIS:CSI06:1,2008-07-03T18:00:00Z,28.8667,-90.4833,1017.07,11111222 
WAVCIS,ioos:station:WAVCIS:CSI06:1,2008-07-03T19:00:00Z,28.8667,-90.4833,1016.8,11111222 
WAVCIS,ioos:station:WAVCIS:CSI06:1,2008-07-03T20:00:00Z,28.8667,-90.4833,1016.55,11111222 
WAVCIS,ioos:station:WAVCIS:CSI06:1,2008-07-03T21:00:00Z,28.8667,-90.4833,1015.98,11111222 
WAVCIS,ioos:station:WAVCIS:CSI06:1,2008-07-03T22:00:00Z,28.8667,-90.4833,1015.93,11111222 
WAVCIS,ioos:station:WAVCIS:CSI06:1,2008-07-03T23:00:00Z,28.8667,-90.4833,1015.56,11111222 
WAVCIS,ioos:station:WAVCIS:CSI06:1,2008-07-04T00:00:00Z,28.8667,-90.4833,1015.92,11111222 
WAVCIS,ioos:station:WAVCIS:CSI06:1,2008-07-04T01:00:00Z,28.8667,-90.4833,1016.29,11111222 
WAVCIS,ioos:station:WAVCIS:CSI06:1,2008-07-04T02:00:00Z,28.8667,-90.4833,1016.68,11111222 
WAVCIS,ioos:station:WAVCIS:CSI06:1,2008-07-04T03:00:00Z,28.8667,-90.4833,1016.59,11111222 
WAVCIS,ioos:station:WAVCIS:CSI06:1,2008-07-04T04:00:00Z,28.8667,-90.4833,1016.8,11111222 
WAVCIS,ioos:station:WAVCIS:CSI06:1,2008-07-04T05:00:00Z,28.8667,-90.4833,1016.64,11111222 
WAVCIS,ioos:station:WAVCIS:CSI06:1,2008-07-04T06:00:00Z,28.8667,-90.4833,1016.13,11111222 
WAVCIS,ioos:station:WAVCIS:CSI06:1,2008-07-04T07:00:00Z,28.8667,-90.4833,1015.91,11111222 
WAVCIS,ioos:station:WAVCIS:CSI06:1,2008-07-04T08:00:00Z,28.8667,-90.4833,1015.86,11111222 
WAVCIS,ioos:station:WAVCIS:CSI06:1,2008-07-04T09:00:00Z,28.8667,-90.4833,1016.27,11111222 
WAVCIS,ioos:station:WAVCIS:CSI06:1,2008-07-04T10:00:00Z,28.8667,-90.4833,1016.43,11111222 
WAVCIS,ioos:station:WAVCIS:CSI06:1,2008-07-04T11:00:00Z,28.8667,-90.4833,1017.14,11111222 
WAVCIS,ioos:station:WAVCIS:CSI06:1,2008-07-04T12:00:00Z,28.8667,-90.4833,1017.48,11111222 
WAVCIS,ioos:station:WAVCIS:CSI06:1,2008-07-04T13:00:00Z,28.8667,-90.4833,1017.8,11111222 
WAVCIS,ioos:station:WAVCIS:CSI06:1,2008-07-04T14:00:00Z,28.8667,-90.4833,1018.01,11111222 
WAVCIS,ioos:station:WAVCIS:CSI06:1,2008-07-04T15:00:00Z,28.8667,-90.4833,1018.24,11111222 
WAVCIS,ioos:station:WAVCIS:CSI06:1,2008-07-04T16:00:00Z,28.8667,-90.4833,1018.76,11111222 
WAVCIS,ioos:station:WAVCIS:CSI06:1,2008-07-04T17:00:00Z,28.8667,-90.4833,1018.43,11111222 
WAVCIS,ioos:station:WAVCIS:CSI06:1,2008-07-04T18:00:00Z,28.8667,-90.4833,1018.41,11111222 
WAVCIS,ioos:station:WAVCIS:CSI06:1,2008-07-04T19:00:00Z,28.8667,-90.4833,1017.69,11111222 
WAVCIS,ioos:station:WAVCIS:CSI06:1,2008-07-04T20:00:00Z,28.8667,-90.4833,1017.27,11111222 
WAVCIS,ioos:station:WAVCIS:CSI06:1,2008-07-04T21:00:00Z,28.8667,-90.4833,1016.88,11111222 
WAVCIS,ioos:station:WAVCIS:CSI06:1,2008-07-04T22:00:00Z,28.8667,-90.4833,1016.69,11111222 
WAVCIS,ioos:station:WAVCIS:CSI06:1,2008-07-04T23:00:00Z,28.8667,-90.4833,1016.39,11111222 
WAVCIS,ioos:station:WAVCIS:CSI06:1,2008-07-05T00:00:00Z,28.8667,-90.4833,1016.28,11111222 
WAVCIS,ioos:station:WAVCIS:CSI06:1,2008-07-05T01:00:00Z,28.8667,-90.4833,1016.56,11111222 
WAVCIS,ioos:station:WAVCIS:CSI06:1,2008-07-05T02:00:00Z,28.8667,-90.4833,1017.03,11111222 
WAVCIS,ioos:station:WAVCIS:CSI06:1,2008-07-05T03:00:00Z,28.8667,-90.4833,1017.9,11111222 
WAVCIS,ioos:station:WAVCIS:CSI06:1,2008-07-05T04:00:00Z,28.8667,-90.4833,1017.86,11111222 
WAVCIS,ioos:station:WAVCIS:CSI06:1,2008-07-05T05:00:00Z,28.8667,-90.4833,1017.04,11111222 
WAVCIS,ioos:station:WAVCIS:CSI06:1,2008-07-05T06:00:00Z,28.8667,-90.4833,1016.89,11111222 
WAVCIS,ioos:station:WAVCIS:CSI06:1,2008-07-05T07:00:00Z,28.8667,-90.4833,1016.53,11111222 
WAVCIS,ioos:station:WAVCIS:CSI06:1,2008-07-05T08:00:00Z,28.8667,-90.4833,1015.93,11111222 
WAVCIS,ioos:station:WAVCIS:CSI06:1,2008-07-05T09:00:00Z,28.8667,-90.4833,1015.77,11111222 
WAVCIS,ioos:station:WAVCIS:CSI06:1,2008-07-05T10:00:00Z,28.8667,-90.4833,1015.83,11111222 
WAVCIS,ioos:station:WAVCIS:CSI06:1,2008-07-05T11:00:00Z,28.8667,-90.4833,1016.25,11111222 
WAVCIS,ioos:station:WAVCIS:CSI06:1,2008-07-05T12:00:00Z,28.8667,-90.4833,1016.88,11111222 
WAVCIS,ioos:station:WAVCIS:CSI06:1,2008-07-05T13:00:00Z,28.8667,-90.4833,1017.21,11111222 
WAVCIS,ioos:station:WAVCIS:CSI06:1,2008-07-05T14:00:00Z,28.8667,-90.4833,1017.43,11111222 
WAVCIS,ioos:station:WAVCIS:CSI06:1,2008-07-05T15:00:00Z,28.8667,-90.4833,1017.51,11111222 
WAVCIS,ioos:station:WAVCIS:CSI06:1,2008-07-05T16:00:00Z,28.8667,-90.4833,1017.42,11111222 
WAVCIS,ioos:station:WAVCIS:CSI06:1,2008-07-05T17:00:00Z,28.8667,-90.4833,1018.05,11111222 
WAVCIS,ioos:station:WAVCIS:CSI06:1,2008-07-05T18:00:00Z,28.8667,-90.4833,1017.39,11111222 
WAVCIS,ioos:station:WAVCIS:CSI06:1,2008-07-05T19:00:00Z,28.8667,-90.4833,1016.71,11111222 
WAVCIS,ioos:station:WAVCIS:CSI06:1,2008-07-05T20:00:00Z,28.8667,-90.4833,1016.6,11111222 
WAVCIS,ioos:station:WAVCIS:CSI06:1,2008-07-05T21:00:00Z,28.8667,-90.4833,1015.9,11111222 
WAVCIS,ioos:station:WAVCIS:CSI06:1,2008-07-05T22:00:00Z,28.8667,-90.4833,1015.34,11111222 
WAVCIS,ioos:station:WAVCIS:CSI06:1,2008-07-05T23:00:00Z,28.8667,-90.4833,1014.84,11111222 
WAVCIS,ioos:station:WAVCIS:CSI06:1,2008-07-06T00:00:00Z,28.8667,-90.4833,1014.86,11111222 
WAVCIS,ioos:station:WAVCIS:CSI06:1,2008-07-06T01:00:00Z,28.8667,-90.4833,1015.02,11111222 
WAVCIS,ioos:station:WAVCIS:CSI06:1,2008-07-06T02:00:00Z,28.8667,-90.4833,1015.2,11111222 
WAVCIS,ioos:station:WAVCIS:CSI06:1,2008-07-06T03:00:00Z,28.8667,-90.4833,1015.25,11111222 
WAVCIS,ioos:station:WAVCIS:CSI06:1,2008-07-06T04:00:00Z,28.8667,-90.4833,1015.36,11111222 
WAVCIS,ioos:station:WAVCIS:CSI06:1,2008-07-06T05:00:00Z,28.8667,-90.4833,1015.11,11111222 
WAVCIS,ioos:station:WAVCIS:CSI06:1,2008-07-06T06:00:00Z,28.8667,-90.4833,1015.1,11111222 
WAVCIS,ioos:station:WAVCIS:CSI06:1,2008-07-06T07:00:00Z,28.8667,-90.4833,1015.22,11111222 
WAVCIS,ioos:station:WAVCIS:CSI06:1,2008-07-06T08:00:00Z,28.8667,-90.4833,1015.09,11111222 
WAVCIS,ioos:station:WAVCIS:CSI06:1,2008-07-06T09:00:00Z,28.8667,-90.4833,1014.88,11111222 
WAVCIS,ioos:station:WAVCIS:CSI06:1,2008-07-06T10:00:00Z,28.8667,-90.4833,1014.96,11111222 
WAVCIS,ioos:station:WAVCIS:CSI06:1,2008-07-06T11:00:00Z,28.8667,-90.4833,1015.28,11111222 
WAVCIS,ioos:station:WAVCIS:CSI06:1,2008-07-06T12:00:00Z,28.8667,-90.4833,1015.22,11111222 
WAVCIS,ioos:station:WAVCIS:CSI06:1,2008-07-06T13:00:00Z,28.8667,-90.4833,1015.9,11111222 
WAVCIS,ioos:station:WAVCIS:CSI06:1,2008-07-06T14:00:00Z,28.8667,-90.4833,1016.79,11111222 
WAVCIS,ioos:station:WAVCIS:CSI06:1,2008-07-06T15:00:00Z,28.8667,-90.4833,1016.63,11111222 
WAVCIS,ioos:station:WAVCIS:CSI06:1,2008-07-06T17:00:00Z,28.8667,-90.4833,1016.88,11111222 
WAVCIS,ioos:station:WAVCIS:CSI06:1,2008-07-06T18:00:00Z,28.8667,-90.4833,1016.59,11111222 
WAVCIS,ioos:station:WAVCIS:CSI06:1,2008-07-06T19:00:00Z,28.8667,-90.4833,1016.04,11111222 
WAVCIS,ioos:station:WAVCIS:CSI06:1,2008-07-06T20:00:00Z,28.8667,-90.4833,1015.72,11111222 
WAVCIS,ioos:station:WAVCIS:CSI06:1,2008-07-06T21:00:00Z,28.8667,-90.4833,1015.6,11111222 
WAVCIS,ioos:station:WAVCIS:CSI06:1,2008-07-06T22:00:00Z,28.8667,-90.4833,1015.47,11111222 
WAVCIS,ioos:station:WAVCIS:CSI06:1,2008-07-06T23:00:00Z,28.8667,-90.4833,1015.4,11111222 
WAVCIS,ioos:station:WAVCIS:CSI06:1,2008-07-07T00:00:00Z,28.8667,-90.4833,1015.28,11111222 
WAVCIS,ioos:station:WAVCIS:CSI06:1,2008-07-07T01:00:00Z,28.8667,-90.4833,1015.27,11111222 
WAVCIS,ioos:station:WAVCIS:CSI06:1,2008-07-07T02:00:00Z,28.8667,-90.4833,1015.58,11111222 
WAVCIS,ioos:station:WAVCIS:CSI06:1,2008-07-07T03:00:00Z,28.8667,-90.4833,1015.8,11111222 
WAVCIS,ioos:station:WAVCIS:CSI06:1,2008-07-07T04:00:00Z,28.8667,-90.4833,1015.87,11111222 
WAVCIS,ioos:station:WAVCIS:CSI06:1,2008-07-07T05:00:00Z,28.8667,-90.4833,1015.58,11111222 
WAVCIS,ioos:station:WAVCIS:CSI06:1,2008-07-07T06:00:00Z,28.8667,-90.4833,1015.65,11111222 
WAVCIS,ioos:station:WAVCIS:CSI06:1,2008-07-07T07:00:00Z,28.8667,-90.4833,1015.7,11111222 
WAVCIS,ioos:station:WAVCIS:CSI06:1,2008-07-07T08:00:00Z,28.8667,-90.4833,1015.42,11111222 
WAVCIS,ioos:station:WAVCIS:CSI06:1,2008-07-07T09:00:00Z,28.8667,-90.4833,1015.49,11111222 
WAVCIS,ioos:station:WAVCIS:CSI06:1,2008-07-07T10:00:00Z,28.8667,-90.4833,1015.6,11111222 
WAVCIS,ioos:station:WAVCIS:CSI06:1,2008-07-07T11:00:00Z,28.8667,-90.4833,1015.79,11111222 
WAVCIS,ioos:station:WAVCIS:CSI06:1,2008-07-07T12:00:00Z,28.8667,-90.4833,1015.97,11111222 
WAVCIS,ioos:station:WAVCIS:CSI06:1,2008-07-07T13:00:00Z,28.8667,-90.4833,1016.36,11111222 
WAVCIS,ioos:station:WAVCIS:CSI06:1,2008-07-07T14:00:00Z,28.8667,-90.4833,1016.5,11111222 
WAVCIS,ioos:station:WAVCIS:CSI06:1,2008-07-07T15:00:00Z,28.8667,-90.4833,1016.67,11111222 
WAVCIS,ioos:station:WAVCIS:CSI06:1,2008-07-07T16:00:00Z,28.8667,-90.4833,1017.0,11111222 
WAVCIS,ioos:station:WAVCIS:CSI06:1,2008-07-07T17:00:00Z,28.8667,-90.4833,1017.3,11111222 
WAVCIS,ioos:station:WAVCIS:CSI06:1,2008-07-07T18:00:00Z,28.8667,-90.4833,1017.26,11111222 
WAVCIS,ioos:station:WAVCIS:CSI06:1,2008-07-07T19:00:00Z,28.8667,-90.4833,1016.66,11111222 
WAVCIS,ioos:station:WAVCIS:CSI06:1,2008-07-07T20:00:00Z,28.8667,-90.4833,1016.36,11111222 
WAVCIS,ioos:station:WAVCIS:CSI06:1,2008-07-07T21:00:00Z,28.8667,-90.4833,1016.05,11111222 
WAVCIS,ioos:station:WAVCIS:CSI06:1,2008-07-07T22:00:00Z,28.8667,-90.4833,1015.52,11111222 
WAVCIS,ioos:station:WAVCIS:CSI06:1,2008-07-07T23:00:00Z,28.8667,-90.4833,1015.84,11111222 
WAVCIS,ioos:station:WAVCIS:CSI06:1,2008-07-08T00:00:00Z,28.8667,-90.4833,1015.83,11111222 
WAVCIS,ioos:station:WAVCIS:CSI06:1,2008-07-08T01:00:00Z,28.8667,-90.4833,1015.35,11111222 
WAVCIS,ioos:station:WAVCIS:CSI06:1,2008-07-08T02:00:00Z,28.8667,-90.4833,1015.68,11111222 
WAVCIS,ioos:station:WAVCIS:CSI06:1,2008-07-08T03:00:00Z,28.8667,-90.4833,1016.09,11111222 
WAVCIS,ioos:station:WAVCIS:CSI06:1,2008-07-08T04:00:00Z,28.8667,-90.4833,1016.18,11111222 
WAVCIS,ioos:station:WAVCIS:CSI06:1,2008-07-08T05:00:00Z,28.8667,-90.4833,1015.71,11111222 
WAVCIS,ioos:station:WAVCIS:CSI06:1,2008-07-08T06:00:00Z,28.8667,-90.4833,1015.26,11111222 
WAVCIS,ioos:station:WAVCIS:CSI06:1,2008-07-08T07:00:00Z,28.8667,-90.4833,1015.09,11111222 
WAVCIS,ioos:station:WAVCIS:CSI06:1,2008-07-08T08:00:00Z,28.8667,-90.4833,1014.81,11111222 
WAVCIS,ioos:station:WAVCIS:CSI06:1,2008-07-08T09:00:00Z,28.8667,-90.4833,1015.2,11111222 
WAVCIS,ioos:station:WAVCIS:CSI06:1,2008-07-08T10:00:00Z,28.8667,-90.4833,1015.26,11111222 
WAVCIS,ioos:station:WAVCIS:CSI06:1,2008-07-08T11:00:00Z,28.8667,-90.4833,1015.63,11111222 
WAVCIS,ioos:station:WAVCIS:CSI06:1,2008-07-08T12:00:00Z,28.8667,-90.4833,1016.09,11111222 
WAVCIS,ioos:station:WAVCIS:CSI06:1,2008-07-08T13:00:00Z,28.8667,-90.4833,1016.4,11111222 
WAVCIS,ioos:station:WAVCIS:CSI06:1,2008-07-08T14:00:00Z,28.8667,-90.4833,1016.81,11111222 
WAVCIS,ioos:station:WAVCIS:CSI06:1,2008-07-08T15:00:00Z,28.8667,-90.4833,1016.84,11111222 
WAVCIS,ioos:station:WAVCIS:CSI06:1,2008-07-08T16:00:00Z,28.8667,-90.4833,1016.98,11111222 
WAVCIS,ioos:station:WAVCIS:CSI06:1,2008-07-08T17:00:00Z,28.8667,-90.4833,1017.1,11111222 
WAVCIS,ioos:station:WAVCIS:CSI06:1,2008-07-08T18:00:00Z,28.8667,-90.4833,1016.66,11111222 
WAVCIS,ioos:station:WAVCIS:CSI06:1,2008-07-08T19:00:00Z,28.8667,-90.4833,1016.35,11111222 
WAVCIS,ioos:station:WAVCIS:CSI06:1,2008-07-08T20:00:00Z,28.8667,-90.4833,1016.04,11111222 
WAVCIS,ioos:station:WAVCIS:CSI06:1,2008-07-08T21:00:00Z,28.8667,-90.4833,1015.59,11111222 
WAVCIS,ioos:station:WAVCIS:CSI06:1,2008-07-08T22:00:00Z,28.8667,-90.4833,1014.91,11111222 
WAVCIS,ioos:station:WAVCIS:CSI06:1,2008-07-08T23:00:00Z,28.8667,-90.4833,1014.63,11111222 
WAVCIS,ioos:station:WAVCIS:CSI06:1,2008-07-09T00:00:00Z,28.8667,-90.4833,1014.68,11111222 
WAVCIS,ioos:station:WAVCIS:CSI06:1,2008-07-09T01:00:00Z,28.8667,-90.4833,1014.75,11111222 
WAVCIS,ioos:station:WAVCIS:CSI06:1,2008-07-09T02:00:00Z,28.8667,-90.4833,1015.03,11111222 
WAVCIS,ioos:station:WAVCIS:CSI06:1,2008-07-09T03:00:00Z,28.8667,-90.4833,1015.43,11111222 
WAVCIS,ioos:station:WAVCIS:CSI06:1,2008-07-09T04:00:00Z,28.8667,-90.4833,1015.83,11111222 
WAVCIS,ioos:station:WAVCIS:CSI06:1,2008-07-09T05:00:00Z,28.8667,-90.4833,1016.31,11111222 
WAVCIS,ioos:station:WAVCIS:CSI06:1,2008-07-09T06:00:00Z,28.8667,-90.4833,1016.11,11111222 
WAVCIS,ioos:station:WAVCIS:CSI06:1,2008-07-09T07:00:00Z,28.8667,-90.4833,1015.85,11111222 
WAVCIS,ioos:station:WAVCIS:CSI06:1,2008-07-09T08:00:00Z,28.8667,-90.4833,1015.63,11111222 
WAVCIS,ioos:station:WAVCIS:CSI06:1,2008-07-09T09:00:00Z,28.8667,-90.4833,1015.7,11111222 
WAVCIS,ioos:station:WAVCIS:CSI06:1,2008-07-09T10:00:00Z,28.8667,-90.4833,1015.67,11111222 
WAVCIS,ioos:station:WAVCIS:CSI06:1,2008-07-09T11:00:00Z,28.8667,-90.4833,1016.07,11111222 
WAVCIS,ioos:station:WAVCIS:CSI06:1,2008-07-09T12:00:00Z,28.8667,-90.4833,1016.61,11111222 
WAVCIS,ioos:station:WAVCIS:CSI06:1,2008-07-09T13:00:00Z,28.8667,-90.4833,1017.24,11111222 
WAVCIS,ioos:station:WAVCIS:CSI06:1,2008-07-09T14:00:00Z,28.8667,-90.4833,1017.14,11111222 
WAVCIS,ioos:station:WAVCIS:CSI06:1,2008-07-09T15:00:00Z,28.8667,-90.4833,1017.93,11111222 
WAVCIS,ioos:station:WAVCIS:CSI06:1,2008-07-09T16:00:00Z,28.8667,-90.4833,1017.61,11111222 
WAVCIS,ioos:station:WAVCIS:CSI06:1,2008-07-09T17:00:00Z,28.8667,-90.4833,1017.84,11111222 
WAVCIS,ioos:station:WAVCIS:CSI06:1,2008-07-09T18:00:00Z,28.8667,-90.4833,1017.45,11111222 
WAVCIS,ioos:station:WAVCIS:CSI06:1,2008-07-09T19:00:00Z,28.8667,-90.4833,1017.29,11111222 
WAVCIS,ioos:station:WAVCIS:CSI06:1,2008-07-09T20:00:00Z,28.8667,-90.4833,1017.0,11111222 
WAVCIS,ioos:station:WAVCIS:CSI06:1,2008-07-09T21:00:00Z,28.8667,-90.4833,1016.57,11111222 
WAVCIS,ioos:station:WAVCIS:CSI06:1,2008-07-09T22:00:00Z,28.8667,-90.4833,1016.41,11111222 
WAVCIS,ioos:station:WAVCIS:CSI06:1,2008-07-09T23:00:00Z,28.8667,-90.4833,1015.95,11111222 
WAVCIS,ioos:station:WAVCIS:CSI06:1,2008-07-10T00:00:00Z,28.8667,-90.4833,1016.12,11111222 
WAVCIS,ioos:station:WAVCIS:CSI06:1,2008-07-10T01:00:00Z,28.8667,-90.4833,1016.23,11111222 
WAVCIS,ioos:station:WAVCIS:CSI06:1,2008-07-10T02:00:00Z,28.8667,-90.4833,1016.65,11111222 
WAVCIS,ioos:station:WAVCIS:CSI06:1,2008-07-10T03:00:00Z,28.8667,-90.4833,1017.18,11111222 
WAVCIS,ioos:station:WAVCIS:CSI06:1,2008-07-10T04:00:00Z,28.8667,-90.4833,1017.77,11111222 
WAVCIS,ioos:station:WAVCIS:CSI06:1,2008-07-10T05:00:00Z,28.8667,-90.4833,1017.89,11111222 
WAVCIS,ioos:station:WAVCIS:CSI06:1,2008-07-10T06:00:00Z,28.8667,-90.4833,1017.31,11111222 
WAVCIS,ioos:station:WAVCIS:CSI06:1,2008-07-10T07:00:00Z,28.8667,-90.4833,1016.98,11111222 
WAVCIS,ioos:station:WAVCIS:CSI06:1,2008-07-10T08:00:00Z,28.8667,-90.4833,1016.64,11111222 
WAVCIS,ioos:station:WAVCIS:CSI06:1,2008-07-10T09:00:00Z,28.8667,-90.4833,1016.64,11111222 
WAVCIS,ioos:station:WAVCIS:CSI06:1,2008-07-10T10:00:00Z,28.8667,-90.4833,1016.97,11111222 
WAVCIS,ioos:station:WAVCIS:CSI06:1,2008-07-10T11:00:00Z,28.8667,-90.4833,1017.51,11111222 
WAVCIS,ioos:station:WAVCIS:CSI06:1,2008-07-10T12:00:00Z,28.8667,-90.4833,1018.01,11111222 
WAVCIS,ioos:station:WAVCIS:CSI06:1,2008-07-10T13:00:00Z,28.8667,-90.4833,1018.64,11111222 
WAVCIS,ioos:station:WAVCIS:CSI06:1,2008-07-10T14:00:00Z,28.8667,-90.4833,1019.26,11111222 
WAVCIS,ioos:station:WAVCIS:CSI06:1,2008-07-10T15:00:00Z,28.8667,-90.4833,1019.33,11111222 
WAVCIS,ioos:station:WAVCIS:CSI06:1,2008-07-10T16:00:00Z,28.8667,-90.4833,1019.7,11111222 
WAVCIS,ioos:station:WAVCIS:CSI06:1,2008-07-10T17:00:00Z,28.8667,-90.4833,1019.47,11111222 
WAVCIS,ioos:station:WAVCIS:CSI06:1,2008-07-10T18:00:00Z,28.8667,-90.4833,1019.36,11111222 
WAVCIS,ioos:station:WAVCIS:CSI06:1,2008-07-10T19:00:00Z,28.8667,-90.4833,1018.83,11111222 
WAVCIS,ioos:station:WAVCIS:CSI06:1,2008-07-10T20:00:00Z,28.8667,-90.4833,1018.51,11111222 
WAVCIS,ioos:station:WAVCIS:CSI06:1,2008-07-10T21:00:00Z,28.8667,-90.4833,1018.36,11111222 
WAVCIS,ioos:station:WAVCIS:CSI06:1,2008-07-10T22:00:00Z,28.8667,-90.4833,1017.85,11111222 
WAVCIS,ioos:station:WAVCIS:CSI06:1,2008-07-10T23:00:00Z,28.8667,-90.4833,1017.44,11111222 
WAVCIS,ioos:station:WAVCIS:CSI06:1,2008-07-11T00:00:00Z,28.8667,-90.4833,1017.39,11111222 
WAVCIS,ioos:station:WAVCIS:CSI06:1,2008-07-11T01:00:00Z,28.8667,-90.4833,1017.5,11111222 
WAVCIS,ioos:station:WAVCIS:CSI06:1,2008-07-11T02:00:00Z,28.8667,-90.4833,1017.83,11111222 
WAVCIS,ioos:station:WAVCIS:CSI06:1,2008-07-11T03:00:00Z,28.8667,-90.4833,1018.12,11111222 
WAVCIS,ioos:station:WAVCIS:CSI06:1,2008-07-11T04:00:00Z,28.8667,-90.4833,1019.07,11111222 
WAVCIS,ioos:station:WAVCIS:CSI06:1,2008-07-11T05:00:00Z,28.8667,-90.4833,1019.14,11111222 
WAVCIS,ioos:station:WAVCIS:CSI06:1,2008-07-11T06:00:00Z,28.8667,-90.4833,1019.09,11111222 
WAVCIS,ioos:station:WAVCIS:CSI06:1,2008-07-11T07:00:00Z,28.8667,-90.4833,1018.33,11111222 
WAVCIS,ioos:station:WAVCIS:CSI06:1,2008-07-11T08:00:00Z,28.8667,-90.4833,1018.17,11111222 
WAVCIS,ioos:station:WAVCIS:CSI06:1,2008-07-11T09:00:00Z,28.8667,-90.4833,1018.04,11111222 
WAVCIS,ioos:station:WAVCIS:CSI06:1,2008-07-11T10:00:00Z,28.8667,-90.4833,1018.23,11111222 
WAVCIS,ioos:station:WAVCIS:CSI06:1,2008-07-11T11:00:00Z,28.8667,-90.4833,1018.4,11111222 
WAVCIS,ioos:station:WAVCIS:CSI06:1,2008-07-11T12:00:00Z,28.8667,-90.4833,1018.81,11111222 
WAVCIS,ioos:station:WAVCIS:CSI06:1,2008-07-11T13:00:00Z,28.8667,-90.4833,1019.24,11111222 
WAVCIS,ioos:station:WAVCIS:CSI06:1,2008-07-11T14:00:00Z,28.8667,-90.4833,1019.81,11111222 
WAVCIS,ioos:station:WAVCIS:CSI06:1,2008-07-11T15:00:00Z,28.8667,-90.4833,1020.11,11111222 
WAVCIS,ioos:station:WAVCIS:CSI06:1,2008-07-11T16:00:00Z,28.8667,-90.4833,1020.22,11111222 
WAVCIS,ioos:station:WAVCIS:CSI06:1,2008-07-11T18:00:00Z,28.8667,-90.4833,1019.58,11111222 
WAVCIS,ioos:station:WAVCIS:CSI06:1,2008-07-11T19:00:00Z,28.8667,-90.4833,1019.14,11111222 
WAVCIS,ioos:station:WAVCIS:CSI06:1,2008-07-11T20:00:00Z,28.8667,-90.4833,1018.79,11111222 
WAVCIS,ioos:station:WAVCIS:CSI06:1,2008-07-11T21:00:00Z,28.8667,-90.4833,1018.33,11111222 
WAVCIS,ioos:station:WAVCIS:CSI06:1,2008-07-11T22:00:00Z,28.8667,-90.4833,1018.1,11111222 
WAVCIS,ioos:station:WAVCIS:CSI06:1,2008-07-11T23:00:00Z,28.8667,-90.4833,1017.7,11111222 
WAVCIS,ioos:station:WAVCIS:CSI06:1,2008-07-12T00:00:00Z,28.8667,-90.4833,1018.05,11111222 
WAVCIS,ioos:station:WAVCIS:CSI06:1,2008-07-12T01:00:00Z,28.8667,-90.4833,1018.28,11111222 
WAVCIS,ioos:station:WAVCIS:CSI06:1,2008-07-12T02:00:00Z,28.8667,-90.4833,1018.51,11111222 
WAVCIS,ioos:station:WAVCIS:CSI06:1,2008-07-12T03:00:00Z,28.8667,-90.4833,1019.06,11111222 
WAVCIS,ioos:station:WAVCIS:CSI06:1,2008-07-12T04:00:00Z,28.8667,-90.4833,1019.38,11111222 
WAVCIS,ioos:station:WAVCIS:CSI06:1,2008-07-12T05:00:00Z,28.8667,-90.4833,1019.52,11111222 